RTU MIREA 1 (RS51S)

Last updated on Sun Dec 14 2025 00:03:12 GMT+0000 (Coordinated Universal Time)

1 61785U 24199BC 25347.28383395 .00048552 00000+0 10550-2 0 9990 2 61785 97.3225 215.7898 0009375 238.5853 121.4479 15.44152986105633
UTC large
Height (km)
Speed (km/s)
/
Latitude / Longitude
Inclination (degrees)
Orbital Period (minutes)
Azimuth
Elevation
Range (km)
Doppler Factor

Next 0 passes for location: London (51.5072 / 0.1276)

Sorry there are no passes over London.